Terug naar catalogus

STARLINK-33855

ActiefCommunicatieVLEO
NORAD 64335·PAYLOAD·🇺🇸 United States

Gelanceerd Jun 10, 2025 vanaf Cape Canaveral Space Force Station

Loading…

Volgende Passages (komende 24 uur)

TLE

VersSource: CelesTrak SupGP

Epoch: Sep 15, 2026, 03:21 UTC

1 64335C 25124U   26258.14006944  .00064254  00000+0  23275-2 0  2585
2 64335  43.0008 131.6251 0001717 269.2180 186.0179 15.27542396    18

Volg STARLINK-33855 in realtime met AllMySat

Download on the App Store